Ketchikan, AK

9:42 PM AKDT on September 20, 2018 (GMT -0800)
Ketchikan International

Weather History for PAKT - October, 2017

Change the Weather History Date:

Friday, October 13, 2017

  Actual Average Record
Temperature  
Mean Temperature 40 °F -  
Max Temperature 45 °F 52 °F 59 °F (1984)
Min Temperature 37 °F 40 °F 32 °F (1976)
Degree Days  
Heating Degree Days 24    
Moisture  
Dew Point 38 °F    
Average Humidity 88    
Maximum Humidity 93    
Minimum Humidity 76    
Precipitation  
Precipitation 0.34 in - - ()
Sea Level Pressure  
Sea Level Pressure 30.16 in    
Wind  
Wind Speed 8 mph (SE)    
Max Wind Speed 17 mph    
Max Gust Speed 25 mph    
Visibility 8 miles    
Events Rain    
Averages and records for this station are not official NWS values.
T = Trace of Precipitation, MM = Missing Value Source: NWS Daily Summary

Daily Weather History Graph

Daily Weather History Graph

Search for Another Location

Airport or City:

Astronomy

Oct. 13, 2017 Rise Set
Actual Time 7:13 AM AKDT 5:51 PM AKDT
Civil Twilight 6:36 AM AKDT 6:27 PM AKDT
Nautical Twilight 5:54 AM AKDT 7:10 PM AKDT
Astronomical Twilight 5:11 AM AKDT 7:52 PM AKDT
Moon No Moon Rise 3:45 PM AKDT (10/13)
Length of Visible Light 11h 50m
Length of Day
10h 37m
Waning Crescent, 36% of the Moon is Illuminated
Oct 13
Waning Crescent
Oct 19
New
Oct 27
First Quarter
Nov 3
Full
Nov 10
Last Quarter

Hourly Weather History & Observations

Time (AKDT) Temp. Windchill Dew Point Humidity Pressure Visibility Wind Dir Wind Speed Gust Speed Precip Events Conditions
12:53 AM 39.9 °F 34.5 °F 37.0 °F 89% 30.17 in 10.0 mi NW 8.1 mph - N/A   Clear
1:53 AM 37.9 °F 32.1 °F 36.0 °F 93% 30.18 in 10.0 mi NW 8.1 mph - N/A   Clear
2:53 AM 37.9 °F 33.5 °F 35.1 °F 89% 30.19 in 10.0 mi WNW 5.8 mph - N/A   Clear
3:53 AM 37.9 °F 32.7 °F 35.1 °F 89% 30.19 in 10.0 mi NW 6.9 mph - N/A   Clear
4:53 AM 37.9 °F - 36.0 °F 93% 30.20 in 10.0 mi Calm Calm - N/A   Clear
5:53 AM 37.0 °F - 34.0 °F 89% 30.21 in 10.0 mi Calm Calm - N/A   Clear
6:12 AM 37.0 °F 33.3 °F 34.0 °F 89% 30.20 in 10.0 mi SE 4.6 mph - N/A   Clear
6:53 AM 37.4 °F 33.8 °F 35.6 °F 93% 30.20 in 10.0 mi SE 4.6 mph - N/A   Clear
7:53 AM 39.2 °F 35.0 °F 35.6 °F 87% 30.21 in 10.0 mi SSE 5.8 mph - N/A   Overcast
8:53 AM 39.9 °F 35.8 °F 37.0 °F 89% 30.22 in 10.0 mi ESE 5.8 mph - N/A   Overcast
9:53 AM 42.1 °F 37.1 °F 37.0 °F 82% 30.22 in 10.0 mi SE 8.1 mph - N/A   Overcast
10:53 AM 42.8 °F 38.6 °F 35.6 °F 76% 30.22 in 10.0 mi SE 6.9 mph - N/A   Overcast
11:53 AM 44.6 °F 40.2 °F 37.4 °F 76% 30.22 in 10.0 mi SE 8.1 mph - N/A   Overcast
12:53 PM 44.6 °F 39.7 °F 37.4 °F 76% 30.22 in 10.0 mi SE 9.2 mph - N/A   Overcast
1:53 PM 44.6 °F 40.7 °F 37.4 °F 76% 30.20 in 10.0 mi SSE 6.9 mph - N/A   Overcast
2:53 PM 44.6 °F 40.7 °F 37.4 °F 76% 30.20 in 10.0 mi SSE 6.9 mph - N/A   Overcast
3:53 PM 44.6 °F 38.1 °F 37.4 °F 76% 30.17 in 10.0 mi SE 13.8 mph - N/A   Overcast
4:53 PM 42.8 °F 37.5 °F 39.2 °F 87% 30.17 in 8.0 mi SSE 9.2 mph - N/A Rain Light Rain
5:53 PM 43.0 °F 37.7 °F 41.0 °F 93% 30.15 in 8.0 mi SSE 9.2 mph - 0.05 in Rain Light Rain
6:53 PM 43.0 °F 37.2 °F 39.9 °F 89% 30.14 in 8.0 mi SSE 10.4 mph - 0.09 in Rain Light Rain
7:53 PM 44.1 °F 38.1 °F 41.0 °F 89% 30.13 in 8.0 mi SSE 11.5 mph - 0.06 in Rain Light Rain
8:53 PM 44.1 °F 38.6 °F 42.1 °F 93% 30.11 in 7.0 mi SSE 10.4 mph - 0.05 in Rain Light Rain
9:53 PM 44.1 °F 37.4 °F 42.1 °F 93% 30.09 in 4.0 mi SE 13.8 mph 20.7 mph 0.04 in Rain Light Rain
10:00 PM 44.1 °F 37.1 °F 42.1 °F 93% 30.08 in 4.0 mi SE 15.0 mph 21.9 mph 0.01 in Rain Light Rain
10:12 PM 44.1 °F 37.1 °F 42.1 °F 93% 30.08 in 4.0 mi SE 15.0 mph 23.0 mph 0.01 in Rain Light Rain
10:38 PM 44.1 °F 37.1 °F 42.1 °F 93% 30.08 in 3.0 mi SE 15.0 mph 25.3 mph 0.02 in Rain Light Rain
10:53 PM 44.1 °F 36.5 °F 42.1 °F 93% 30.08 in 3.0 mi SE 17.3 mph - 0.02 in Rain Light Rain
11:00 PM 44.1 °F 36.5 °F 42.1 °F 93% 30.07 in 4.0 mi SE 17.3 mph 24.2 mph 0.00 in Rain Light Rain
11:53 PM 44.1 °F 37.4 °F 42.1 °F 93% 30.06 in 4.0 mi SSE 13.8 mph - 0.03 in Rain Light Rain